Time,TemperatureF,DewpointF,PressureIn,WindDirection,WindDirectionDegrees,WindSpeedMPH,WindSpeedGustMPH,Humidity,HourlyPrecipIn,Conditions,Clouds,dailyrainin,SoftwareType,DateUTC
2013-07-20 00:12:00,81.0,66.0,-100.00,North,-999,-999.0,-999.0,60,0.00,,,0.00,,2013-07-20 04:12:00,
2013-07-20 00:22:00,81.0,66.0,-100.00,North,-999,-999.0,-999.0,60,0.00,,,0.00,,2013-07-20 04:22:00,
2013-07-20 00:30:00,76.0,72.0,-100.00,North,-999,-999.0,-999.0,87,0.04,,,-99.99,,2013-07-20 04:30:00,
2013-07-20 00:33:00,81.0,66.0,-100.00,North,-999,-999.0,-999.0,60,0.00,,,0.00,,2013-07-20 04:33:00,
2013-07-20 00:44:00,81.0,66.0,-100.00,North,-999,-999.0,-999.0,60,0.00,,,0.00,,2013-07-20 04:44:00,
2013-07-20 01:02:00,76.0,72.0,-100.00,North,-999,-999.0,-999.0,87,0.04,,,-99.99,,2013-07-20 05:02:00,
2013-07-20 01:12:00,76.0,72.0,-100.00,North,-999,-999.0,-999.0,87,0.04,,,-99.99,,2013-07-20 05:12:00,
2013-07-20 01:22:00,76.0,72.0,-100.00,North,-999,-999.0,-999.0,87,0.04,,,-99.99,,2013-07-20 05:22:00,
2013-07-20 02:11:00,73.0,69.0,-100.00,North,-999,0.0,-999.0,86,-99.99,,,0.05,,2013-07-20 06:11:00,
2013-07-20 02:22:00,73.0,69.0,-100.00,North,-999,0.0,-999.0,86,-99.99,,,0.05,,2013-07-20 06:22:00,
2013-07-20 02:32:00,73.0,69.0,-100.00,North,-999,0.0,-999.0,86,-99.99,,,0.05,,2013-07-20 06:32:00,
2013-07-20 02:43:00,73.0,69.0,-100.00,North,-999,0.0,-999.0,86,-99.99,,,0.05,,2013-07-20 06:43:00,
2013-07-20 03:12:00,72.0,68.0,-100.00,North,-999,0.0,-999.0,86,0.00,,,0.05,,2013-07-20 07:12:00,
2013-07-20 03:22:00,72.0,68.0,-100.00,North,-999,0.0,-999.0,86,0.00,,,0.05,,2013-07-20 07:22:00,
2013-07-20 03:33:00,72.0,68.0,-100.00,North,-999,0.0,-999.0,86,0.00,,,0.05,,2013-07-20 07:33:00,
2013-07-20 03:44:00,72.0,68.0,-100.00,North,-999,0.0,-999.0,86,0.00,,,0.05,,2013-07-20 07:44:00,
2013-07-20 04:11:00,71.0,68.0,-100.00,North,-999,-999.0,-999.0,90,0.00,,,-99.99,,2013-07-20 08:11:00,
2013-07-20 04:22:00,71.0,68.0,-100.00,North,-999,-999.0,-999.0,90,0.00,,,-99.99,,2013-07-20 08:22:00,
2013-07-20 04:32:00,71.0,68.0,-100.00,North,-999,-999.0,-999.0,90,0.00,,,-99.99,,2013-07-20 08:32:00,
2013-07-20 04:44:00,71.0,68.0,-100.00,North,-999,-999.0,-999.0,90,0.00,,,-99.99,,2013-07-20 08:44:00,
2013-07-20 05:02:00,72.0,67.0,-100.00,North,-999,0.0,-999.0,85,0.00,,,-99.99,,2013-07-20 09:02:00,
2013-07-20 05:11:00,72.0,67.0,-100.00,North,-999,0.0,-999.0,85,0.00,,,-99.99,,2013-07-20 09:11:00,
2013-07-20 05:22:00,72.0,67.0,-100.00,North,-999,0.0,-999.0,85,0.00,,,-99.99,,2013-07-20 09:22:00,
2013-07-20 05:33:00,72.0,67.0,-100.00,North,-999,0.0,-999.0,85,0.00,,,-99.99,,2013-07-20 09:33:00,
2013-07-20 05:43:00,72.0,67.0,-100.00,North,-999,0.0,-999.0,85,0.00,,,-99.99,,2013-07-20 09:43:00,
2013-07-20 06:01:00,70.0,67.0,-100.00,North,-999,0.0,-999.0,89,0.00,,,0.05,,2013-07-20 10:01:00,
2013-07-20 06:11:00,70.0,67.0,-100.00,North,-999,0.0,-999.0,89,0.00,,,0.05,,2013-07-20 10:11:00,
2013-07-20 06:22:00,70.0,67.0,-100.00,North,-999,0.0,-999.0,89,0.00,,,0.05,,2013-07-20 10:22:00,
2013-07-20 06:32:00,70.0,67.0,-100.00,North,-999,0.0,-999.0,89,0.00,,,0.05,,2013-07-20 10:32:00,
2013-07-20 06:42:00,70.0,67.0,-100.00,North,-999,0.0,-999.0,89,0.00,,,0.05,,2013-07-20 10:42:00,
2013-07-20 07:02:00,73.0,68.0,-100.00,North,-999,-999.0,-999.0,84,0.00,,,0.05,,2013-07-20 11:02:00,
2013-07-20 07:11:00,73.0,68.0,-100.00,North,-999,-999.0,-999.0,84,0.00,,,0.05,,2013-07-20 11:11:00,
2013-07-20 07:22:00,73.0,68.0,-100.00,North,-999,-999.0,-999.0,84,0.00,,,0.05,,2013-07-20 11:22:00,
2013-07-20 07:32:00,73.0,68.0,-100.00,North,-999,-999.0,-999.0,84,0.00,,,0.05,,2013-07-20 11:32:00,
2013-07-20 07:43:00,73.0,68.0,-100.00,North,-999,-999.0,-999.0,84,0.00,,,0.05,,2013-07-20 11:43:00,
2013-07-20 09:22:00,80.0,64.0,-100.00,North,-999,0.0,-999.0,57,-99.99,,,-99.99,,2013-07-20 13:22:00,
2013-07-20 09:32:00,80.0,64.0,-100.00,North,-999,0.0,-999.0,57,-99.99,,,-99.99,,2013-07-20 13:32:00,
2013-07-20 09:43:00,80.0,64.0,-100.00,North,-999,0.0,-999.0,57,-99.99,,,-99.99,,2013-07-20 13:43:00,
2013-07-20 10:02:00,81.0,65.0,-100.00,North,-999,0.0,-999.0,58,0.00,,,-99.99,,2013-07-20 14:02:00,
2013-07-20 10:11:00,81.0,65.0,-100.00,North,-999,0.0,-999.0,58,0.00,,,-99.99,,2013-07-20 14:11:00,
2013-07-20 10:22:00,81.0,65.0,-100.00,North,-999,0.0,-999.0,58,0.00,,,-99.99,,2013-07-20 14:22:00,
2013-07-20 10:32:00,81.0,65.0,-100.00,North,-999,0.0,-999.0,58,0.00,,,-99.99,,2013-07-20 14:32:00,
2013-07-20 10:43:00,81.0,65.0,-100.00,North,-999,0.0,-999.0,58,0.00,,,-99.99,,2013-07-20 14:43:00,
2013-07-20 11:01:00,83.0,65.0,-100.00,North,-999,0.0,-999.0,55,0.00,,,0.05,,2013-07-20 15:01:00,
2013-07-20 11:11:00,83.0,65.0,-100.00,North,-999,0.0,-999.0,55,0.00,,,0.05,,2013-07-20 15:11:00,
2013-07-20 11:23:00,83.0,65.0,-100.00,North,-999,0.0,-999.0,55,0.00,,,0.05,,2013-07-20 15:23:00,
2013-07-20 11:33:00,83.0,65.0,-100.00,North,-999,0.0,-999.0,55,0.00,,,0.05,,2013-07-20 15:33:00,
2013-07-20 11:44:00,83.0,65.0,-100.00,North,-999,0.0,-999.0,55,0.00,,,0.05,,2013-07-20 15:44:00,
2013-07-20 12:01:00,84.0,65.0,-100.00,North,-999,-999.0,-999.0,53,0.00,,,0.05,,2013-07-20 16:01:00,
2013-07-20 12:11:00,84.0,65.0,-100.00,North,-999,-999.0,-999.0,53,0.00,,,0.05,,2013-07-20 16:11:00,
2013-07-20 12:22:00,84.0,65.0,-100.00,North,-999,-999.0,-999.0,53,0.00,,,0.05,,2013-07-20 16:22:00,
2013-07-20 12:32:00,84.0,65.0,-100.00,North,-999,-999.0,-999.0,53,0.00,,,0.05,,2013-07-20 16:32:00,
2013-07-20 12:43:00,84.0,65.0,-100.00,North,-999,-999.0,-999.0,53,0.00,,,0.05,,2013-07-20 16:43:00,
2013-07-20 13:02:00,88.0,64.0,-100.00,North,-999,0.0,-999.0,45,0.00,,,0.05,,2013-07-20 17:02:00,
2013-07-20 13:11:00,88.0,64.0,-100.00,North,-999,0.0,-999.0,45,0.00,,,0.05,,2013-07-20 17:11:00,
2013-07-20 13:22:00,88.0,64.0,-100.00,North,-999,0.0,-999.0,45,0.00,,,0.05,,2013-07-20 17:22:00,
2013-07-20 13:32:00,88.0,64.0,-100.00,North,-999,0.0,-999.0,45,0.00,,,0.05,,2013-07-20 17:32:00,
2013-07-20 13:43:00,88.0,64.0,-100.00,North,-999,0.0,-999.0,45,0.00,,,0.05,,2013-07-20 17:43:00,
2013-07-20 13:45:00,85.0,66.0,-100.00,North,-999,0.0,-999.0,53,0.00,,,0.05,,2013-07-20 17:45:00,
2013-07-20 14:01:00,85.0,66.0,-100.00,North,-999,0.0,-999.0,53,0.00,,,0.05,,2013-07-20 18:01:00,
2013-07-20 14:12:00,85.0,66.0,-100.00,North,-999,0.0,-999.0,53,0.00,,,0.05,,2013-07-20 18:12:00,
2013-07-20 14:25:00,85.0,66.0,-100.00,North,-999,0.0,-999.0,53,0.00,,,0.05,,2013-07-20 18:25:00,
2013-07-20 15:06:00,87.0,66.0,-100.00,North,-999,-999.0,-999.0,49,0.00,,,0.05,,2013-07-20 19:06:00,
2013-07-20 15:16:00,87.0,66.0,-100.00,North,-999,-999.0,-999.0,49,0.00,,,0.05,,2013-07-20 19:16:00,
2013-07-20 15:26:00,87.0,66.0,-100.00,North,-999,-999.0,-999.0,49,0.00,,,0.05,,2013-07-20 19:26:00,
2013-07-20 15:35:00,87.0,66.0,-100.00,North,-999,-999.0,-999.0,49,0.00,,,0.05,,2013-07-20 19:35:00,
2013-07-20 15:45:00,90.0,65.0,-100.00,North,-999,0.0,-999.0,43,0.00,,,0.05,,2013-07-20 19:45:00,
2013-07-20 16:16:00,90.0,65.0,-100.00,North,-999,0.0,-999.0,43,0.00,,,0.05,,2013-07-20 20:16:00,
2013-07-20 16:35:00,90.0,65.0,-100.00,North,-999,0.0,-999.0,43,0.00,,,0.05,,2013-07-20 20:35:00,
2013-07-20 16:45:00,86.0,64.0,-100.00,North,-999,-999.0,-999.0,48,0.00,,,0.05,,2013-07-20 20:45:00,
2013-07-20 17:08:00,86.0,64.0,-100.00,North,-999,-999.0,-999.0,48,0.00,,,0.05,,2013-07-20 21:08:00,
2013-07-20 17:15:00,86.0,64.0,-100.00,North,-999,-999.0,-999.0,48,0.00,,,0.05,,2013-07-20 21:15:00,
2013-07-20 17:28:00,86.0,64.0,-100.00,North,-999,-999.0,-999.0,48,0.00,,,0.05,,2013-07-20 21:28:00,
2013-07-20 17:35:00,86.0,64.0,-100.00,North,-999,-999.0,-999.0,48,0.00,,,0.05,,2013-07-20 21:35:00,
2013-07-20 17:45:00,81.0,64.0,-100.00,North,-999,0.0,-999.0,55,0.00,,,0.05,,2013-07-20 21:45:00,
2013-07-20 18:09:00,81.0,64.0,-100.00,North,-999,0.0,-999.0,55,0.00,,,0.05,,2013-07-20 22:09:00,
2013-07-20 18:18:00,81.0,64.0,-100.00,North,-999,0.0,-999.0,55,0.00,,,0.05,,2013-07-20 22:18:00,
2013-07-20 18:27:00,81.0,64.0,-100.00,North,-999,0.0,-999.0,55,0.00,,,0.05,,2013-07-20 22:27:00,
2013-07-20 18:36:00,81.0,64.0,-100.00,North,-999,0.0,-999.0,55,0.00,,,0.05,,2013-07-20 22:36:00,
2013-07-20 18:45:00,82.0,66.0,-100.00,North,-999,0.0,-999.0,58,0.00,,,0.05,,2013-07-20 22:45:00,
2013-07-20 19:06:00,82.0,66.0,-100.00,North,-999,0.0,-999.0,58,0.00,,,0.05,,2013-07-20 23:06:00,
2013-07-20 19:17:00,82.0,66.0,-100.00,North,-999,0.0,-999.0,58,0.00,,,0.05,,2013-07-20 23:17:00,
2013-07-20 19:29:00,82.0,66.0,-100.00,North,-999,0.0,-999.0,58,0.00,,,0.05,,2013-07-20 23:29:00,
2013-07-20 19:38:00,82.0,66.0,-100.00,North,-999,0.0,-999.0,58,0.00,,,0.05,,2013-07-20 23:38:00,
2013-07-20 19:45:00,80.0,67.0,-100.00,North,-999,-999.0,-999.0,63,0.00,,,0.05,,2013-07-20 23:45:00,
2013-07-20 20:09:00,80.0,67.0,-100.00,North,-999,-999.0,-999.0,63,0.00,,,0.05,,2013-07-21 00:09:00,
2013-07-20 20:18:00,80.0,67.0,-100.00,North,-999,-999.0,-999.0,63,0.00,,,0.05,,2013-07-21 00:18:00,
2013-07-20 20:24:00,80.0,67.0,-100.00,North,-999,-999.0,-999.0,63,0.00,,,0.05,,2013-07-21 00:24:00,
2013-07-20 21:07:00,78.0,64.0,-100.00,North,-999,-999.0,-999.0,62,0.00,,,0.05,,2013-07-21 01:07:00,
2013-07-20 21:13:00,78.0,64.0,-100.00,North,-999,-999.0,-999.0,62,0.00,,,0.05,,2013-07-21 01:13:00,
2013-07-20 21:29:00,78.0,64.0,-100.00,North,-999,-999.0,-999.0,62,0.00,,,0.05,,2013-07-21 01:29:00,
2013-07-20 21:36:00,78.0,64.0,-100.00,North,-999,-999.0,-999.0,62,0.00,,,0.05,,2013-07-21 01:36:00,
2013-07-20 22:19:00,77.0,66.0,-100.00,North,-999,0.0,-999.0,69,0.00,,,0.05,,2013-07-21 02:19:00,
2013-07-20 22:37:00,77.0,66.0,-100.00,North,-999,0.0,-999.0,69,0.00,,,0.05,,2013-07-21 02:37:00,
2013-07-20 22:44:00,77.0,66.0,-100.00,North,-999,0.0,-999.0,69,0.00,,,0.05,,2013-07-21 02:44:00,
2013-07-20 23:05:00,76.0,64.0,-100.00,North,-999,0.0,-999.0,66,0.00,,,0.05,,2013-07-21 03:05:00,